Regional Weather Roundup
Issued by NWS

Home | Current Version | Previous Version | Graphics & Text | Print | Product List | Glossary On
Versions: 1 2 3 4 5 6 7 8 9 10 11 12 13 14 15 16 17 18 19 20 21 22 23 24 25 26 27 28 29 30 31 32 33 34 35 36 37 38 39 40 41 42 43 44 45 46 47 48 49 50
000
ASUS43 KTOP 280959
RWRKS

WEATHER ROUNDUP FOR KANSAS
NATIONAL WEATHER SERVICE GOODLAND KS
500 AM CDT SUN MAY 28 2017

NOTE:  "FAIR" INDICATES FEW OR NO CLOUDS BELOW 12,000 FEET WITH NO
SIGNIFICANT WEATHER AND/OR OBSTRUCTIONS TO VISIBILITY.

KSZ001>006-013>018-027>032-041>047-281100-
NORTHWEST KANSAS

CITY           SKY/WX    TMP DP  RH WIND       PRES   REMARKS
GOODLAND       CLEAR     46  44  93 W12       30.12S
HAYS           CLEAR     53  50  89 NW9       30.02F
HILL CITY      CLEAR     51  49  92 W6        30.04F
RUSSELL        CLEAR     53  51  93 NW10      29.98F
$$

KSZ061>065-074>080-084>089-281100-
SOUTHWEST KANSAS

CITY           SKY/WX    TMP DP  RH WIND       PRES   REMARKS
DODGE CITY     CLEAR     50  47  89 NW10      30.04F
ELKHART          N/A     51  37  58 MISG        N/A
GARDEN CITY    CLEAR     50  47  89 NW12      30.06F
LIBERAL        CLEAR     51  49  92 NW12      30.11R
$$

KSZ066>073-081>083-090>101-281100-
SOUTHEAST KANSAS

CITY           SKY/WX    TMP DP  RH WIND       PRES   REMARKS
CHANUTE        CLOUDY    63  59  87 N10       29.85S
COFFEYVILLE    CLOUDY    65  65 100 N9G21     29.84R
HUTCHINSON     CLEAR     59  54  83 N9        29.96R
MEDICINE LODGE   N/A     57  53  86 N8        29.95F
NEWTON         CLEAR     58  55  90 N14       29.94R
PARSONS        CLOUDY    64  60  87 N14       29.85R
WICHITA INTL   PTCLDY    61  57  87 N13       29.93R
WICHITA JABRA  CLEAR     60  57  89 NW15      29.91F
WINFIELD       CLEAR     61  59  93 NW5       29.93R
$$

KSZ007>012-019>026-033>040-048>060-102>105-281100-
NORTHEAST KANSAS

CITY           SKY/WX    TMP DP  RH WIND       PRES   REMARKS
CONCORDIA      CLEAR     53  52  96 W7        29.96F
EMPORIA        CLEAR     60  59  96 N9        29.88F
LAWRENCE       CLEAR     59  58  96 NW8       29.87F
MANHATTAN      PTCLDY    57  55  93 CALM      29.93F
OLATHE IND     CLOUDY    59  58  96 NW9       29.86F
OLATHE EXE     CLOUDY    59  59 100 NW8       29.85F
SALINA         PTCLDY    58  55  90 NW8       29.97S
TOPEKA BILLARD CLEAR     60  59  96 NW7       29.88F
TOPEKA FORBES  CLEAR     61  58  90 NW9       29.88F
$$




USA.gov is the U.S. government's official web portal to all federal, state and local government web resources and services.